CW4352 Weather Reports


time (UTC)temp
F
wind
direction
speed
knots
gust
knots
rain 1hr
in
rain 24hr
in
rain mn
in
humidity
%
barometer
mb
20260902074204 79 313 0.0 1.7 0.00 0.01 0.00 62 1014.3
20260902073704 78 313 0.0 1.7 0.00 0.01 0.00 62 1014.3
20260902073204 78 313 0.0 1.7 0.00 0.01 0.00 63 1014.3
20260902071705 76 313 0.0 1.7 0.00 0.01 0.00 65 1013.9
20260902071204 76 313 0.0 0.0 0.00 0.01 0.00 65 1013.9
20260902063705 72 313 0.0 0.9 0.00 0.01 0.00 72 1013.8
20260902061705 70 313 0.0 0.0 0.00 0.01 0.00 74 1013.8
20260902054705 69 313 0.0 0.0 0.00 0.01 0.00 77 1013.6
20260902053205 69 313 0.9 2.6 0.00 0.01 0.00 76 1013.5
20260902051205 68 316 0.0 0.9 0.00 0.01 0.00 78 1013.2
20260902050704 68 316 0.0 1.7 0.00 0.01 0.00 78 1013.2
20260902050204 68 316 0.9 2.6 0.00 0.01 0.00 78 1013.2
20260902044204 69 316 0.0 0.9 0.00 0.01 0.00 76 1013.3
20260902043705 69 316 0.0 2.6 0.00 0.01 0.00 76 1013.3
20260902043204 69 316 1.7 2.6 0.00 0.01 0.00 75 1013.3
20260902041704 69 316 2.6 4.3 0.00 0.01 0.00 75 1013.3
20260902041204 69 316 1.7 2.6 0.00 0.01 0.00 76 1013.2
20260902040705 69 316 1.7 2.6 0.00 0.01 0.00 76 1013.2
20260902040204 69 316 1.7 2.6 0.00 0.01 0.00 76 1013.2
20260902030704 69 316 1.7 2.6 0.00 0.01 0.00 81 1013.2
20260902030204 69 316 1.7 2.6 0.00 0.01 0.00 81 1013.2
20260902024704 70 316 1.7 2.6 0.00 0.01 0.00 81 1013.2
20260902023204 70 316 2.6 4.3 0.00 0.01 0.00 80 1013.1
20260902021704 70 316 1.7 2.6 0.00 0.01 0.00 80 1013.1
20260902021204 70 316 1.7 2.6 0.00 0.01 0.00 80 1013.1
20260902013704 70 316 1.7 2.6 0.00 0.01 0.00 83 1013.1
20260902010205 71 316 0.0 2.6 0.00 0.01 0.00 85 1013.1
20260902004704 71 316 1.7 2.6 0.00 0.01 0.00 85 1013.1
20260902001704 71 316 1.7 4.3 0.00 0.01 0.00 85 1013.2
20260902001204 71 316 2.6 2.6 0.00 0.01 0.00 85 1013.2
20260902000704 71 316 2.6 4.3 0.00 0.01 0.00 85 1013.2
20260902000204 71 316 1.7 2.6 0.00 0.01 0.00 85 1013.2
20260901234704 72 316 0.9 2.6 0.00 0.01 0.00 85 1013.2
20260901231705 72 316 0.9 1.7 0.00 0.01 0.00 84 1012.3
20260901224204 72 316 0.9 2.6 0.00 0.01 0.00 86 1013.1
20260901223204 73 316 0.9 2.6 0.00 0.01 0.00 86 1013.1
20260901221704 73 316 0.0 0.0 0.00 0.01 0.00 84 1013.1
20260901221204 73 316 0.0 0.0 0.00 0.01 0.00 84 1013.1
20260901220705 73 316 0.0 0.9 0.00 0.01 0.00 84 1013.1
20260901213204 74 316 0.0 2.6 0.00 0.01 0.01 84 1013.0
20260901211704 74 316 0.9 2.6 0.00 0.01 0.01 83 1013.0
20260901211204 74 316 0.9 1.7 0.00 0.01 0.01 83 1013.0
20260901210204 74 316 0.9 2.6 0.00 0.01 0.01 83 1012.9
20260901203204 75 316 0.9 2.6 0.00 0.01 0.01 76 1012.8
20260901201204 76 316 0.0 0.0 0.00 0.01 0.01 73 1012.6
20260901194704 77 316 0.0 0.9 0.00 0.01 0.01 72 1012.6
20260901193706 78 316 0.9 1.7 0.00 0.01 0.01 67 1012.6
20260901190704 80 39 0.9 1.7 0.00 0.01 0.01 59 1011.9
20260901184704 80 39 0.9 2.6 0.00 0.01 0.01 55 1011.9
20260901181704 81 40 0.9 1.7 0.01 0.01 0.01 55 1011.1
20260901180204 82 42 0.9 2.6 0.01 0.01 0.01 55 1011.1
20260901174204 83 43 0.9 1.7 0.01 0.01 0.01 56 1011.1
20260901173704 83 45 0.0 0.9 0.01 0.01 0.01 57 1011.1
20260901173203 83 45 0.0 6.1 0.01 0.01 0.01 57 1011.2
20260901170704 84 43 0.9 4.3 0.00 0.00 0.00 52 1011.1
20260901170204 85 46 1.7 4.3 0.00 0.00 0.00 51 1011.1
20260901164704 86 89 0.9 4.3 0.00 0.00 0.00 49 1010.8
20260901164203 86 44 0.9 2.6 0.00 0.00 0.00 49 1010.8
20260901161204 87 32 1.7 2.6 0.00 0.00 0.00 42 1011.1
20260901160203 88 46 0.9 10.4 0.00 0.00 0.00 42 1011.1
20260901154203 88 17 1.7 4.3 0.00 0.00 0.00 44 1011.1
20260901151704 89 20 1.7 7.0 0.00 0.00 0.00 41 1011.1
20260901150203 89 8 1.7 4.3 0.00 0.00 0.00 39 1011.2
20260901143204 89 42 0.9 7.0 0.00 0.00 0.00 39 1011.6
20260901141204 89 34 0.9 2.6 0.00 0.00 0.00 37 1011.6
20260901140704 89 28 0.9 2.6 0.00 0.00 0.00 37 1011.6
20260901140204 89 33 0.9 2.6 0.00 0.00 0.00 39 1011.8
20260901134204 90 32 0.9 2.6 0.00 0.00 0.00 38 1011.8
20260901133704 90 31 1.7 2.6 0.00 0.00 0.00 38 1011.8
20260901133204 90 35 1.7 5.2 0.00 0.00 0.00 37 1011.8
20260901131204 89 28 0.0 2.6 0.00 0.00 0.00 38 1012.1
20260901130203 89 12 2.6 6.1 0.00 0.00 0.00 40 1012.1
20260901124704 88 45 0.9 4.3 0.00 0.00 0.00 44 1012.1
20260901124203 88 351 0.9 2.6 0.00 0.00 0.00 38 1012.1
20260901121203 87 26 1.7 4.3 0.00 0.00 0.00 41 1012.5
20260901120704 86 47 1.7 2.6 0.00 0.00 0.00 41 1012.5
20260901114204 86 338 1.7 4.3 0.00 0.00 0.00 43 1012.5
20260901111704 85 34 0.0 2.6 0.00 0.00 0.00 45 1012.6
20260901111204 85 34 1.7 2.6 0.00 0.00 0.00 46 1012.7
20260901110703 85 30 1.7 4.3 0.00 0.00 0.00 47 1012.7
20260901110204 84 355 1.7 7.8 0.00 0.00 0.00 48 1012.7
20260901104204 83 16 1.7 2.6 0.00 0.00 0.00 49 1012.7
20260901101706 82 355 0.9 2.6 0.00 0.00 0.00 55 1012.9
20260901100206 82 28 1.7 6.1 0.00 0.00 0.00 55 1012.9
20260901094704 81 12 1.7 5.2 0.00 0.00 0.00 56 1012.9
20260901093703 81 21 2.6 5.2 0.00 0.00 0.00 57 1012.9
20260901091704 81 4 2.6 5.2 0.00 0.00 0.00 57 1012.9
20260901091204 81 5 1.7 4.3 0.00 0.00 0.00 57 1012.9
20260901090704 81 331 2.6 4.3 0.00 0.00 0.00 56 1012.9
20260901090204 81 341 2.6 7.0 0.00 0.00 0.00 54 1012.9
20260901084704 80 316 1.7 5.2 0.00 0.00 0.00 54 1012.2
20260901084203 80 333 1.7 5.2 0.00 0.00 0.00 54 1012.2
20260901081204 80 349 2.6 5.2 0.00 0.00 0.00 55 1012.2
20260901080203 80 9 0.9 5.2 0.00 0.00 0.00 55 1012.2